{"data":{"norad_id":37779,"epoch":"2026-08-29T02:39:03.108096Z","epoch_age_seconds":1952583,"freshness":"OLD","line1":"1 37779U 11042A   26241.11045264 -.00000106  00000+0  00000+0 0  9995","line2":"2 37779   0.8695  83.5318 0000252 133.6176 165.8142  0.99375980 55206","mean_motion":0.9937598,"eccentricity":2.52e-5,"inclination_deg":0.8695,"raan_deg":83.5318,"arg_perigee_deg":133.6176,"mean_anomaly_deg":165.8142,"bstar":0,"rev_number":5520,"period_min":1449.0423138469,"perigee_km":36038.537253208,"apogee_km":36040.675107464,"semimajor_km":42417.743180336,"source":"CELESTRAK","updated_at":"2026-08-29T09:01:26.599232Z"}}